Time,TemperatureF,DewpointF,PressureIn,WindDirection,WindDirectionDegrees,WindSpeedMPH,WindSpeedGustMPH,Humidity,HourlyPrecipIn,Conditions,Clouds,dailyrainin,SoftwareType,DateUTC
2013-06-17 00:01:00,74.5,68.6,29.89,South,184,0.0,0.0,82,0.00,,,0.00,Wunderground v.1.15,2013-06-17 04:01:00,
2013-06-17 00:04:00,74.4,68.5,29.89,South,184,0.0,0.0,82,0.00,,,0.00,Wunderground v.1.15,2013-06-17 04:04:00,
2013-06-17 00:05:00,74.4,68.5,29.89,South,184,0.0,0.0,82,0.00,,,0.00,Wunderground v.1.15,2013-06-17 04:05:00,
2013-06-17 00:09:00,74.4,68.5,29.89,South,184,0.0,0.0,82,0.00,,,0.00,Wunderground v.1.15,2013-06-17 04:09:00,
2013-06-17 00:14:00,74.3,68.4,29.89,South,184,0.0,0.0,82,0.00,,,0.00,Wunderground v.1.15,2013-06-17 04:14:00,
2013-06-17 00:16:00,74.2,68.3,29.89,South,184,0.0,1.0,82,0.00,,,0.00,Wunderground v.1.15,2013-06-17 04:16:00,
2013-06-17 00:21:00,74.2,68.3,29.89,South,184,0.0,0.0,82,0.00,,,0.00,Wunderground v.1.15,2013-06-17 04:21:00,
2013-06-17 00:26:00,74.1,68.3,29.89,South,184,0.0,0.0,82,0.00,,,0.00,Wunderground v.1.15,2013-06-17 04:26:00,
2013-06-17 00:31:00,74.0,68.2,29.89,South,184,0.0,0.0,82,0.00,,,0.00,Wunderground v.1.15,2013-06-17 04:31:00,
2013-06-17 00:36:00,73.9,68.1,29.89,South,184,0.0,0.0,82,0.00,,,0.00,Wunderground v.1.15,2013-06-17 04:36:00,
2013-06-17 00:42:00,73.9,68.1,29.89,South,184,0.0,0.0,82,0.00,,,0.00,Wunderground v.1.15,2013-06-17 04:42:00,
2013-06-17 00:47:00,73.8,68.0,29.89,South,184,0.0,0.0,82,0.00,,,0.00,Wunderground v.1.15,2013-06-17 04:47:00,
2013-06-17 00:52:00,73.7,67.9,29.89,South,184,0.0,0.0,82,0.00,,,0.00,Wunderground v.1.15,2013-06-17 04:52:00,
2013-06-17 00:57:00,73.6,67.8,29.89,South,184,0.0,0.0,82,0.00,,,0.00,Wunderground v.1.15,2013-06-17 04:57:00,
2013-06-17 01:02:00,73.4,67.6,29.89,South,184,0.0,0.0,82,0.00,,,0.00,Wunderground v.1.15,2013-06-17 05:02:00,
2013-06-17 01:07:00,73.3,67.8,29.90,South,184,0.0,0.0,83,0.00,,,0.00,Wunderground v.1.15,2013-06-17 05:07:00,
2013-06-17 01:13:00,73.2,67.7,29.90,South,184,0.0,0.0,83,0.00,,,0.00,Wunderground v.1.15,2013-06-17 05:13:00,
2013-06-17 01:18:00,73.1,67.6,29.90,South,184,0.0,0.0,83,0.00,,,0.00,Wunderground v.1.15,2013-06-17 05:18:00,
2013-06-17 01:23:00,73.0,67.9,29.90,South,184,0.0,0.0,84,0.00,,,0.00,Wunderground v.1.15,2013-06-17 05:23:00,
2013-06-17 01:28:00,73.0,67.9,29.90,South,184,0.0,0.0,84,0.00,,,0.00,Wunderground v.1.15,2013-06-17 05:28:00,
2013-06-17 01:33:00,72.9,67.8,29.90,South,184,0.0,0.0,84,0.00,,,0.00,Wunderground v.1.15,2013-06-17 05:33:00,
2013-06-17 01:38:00,72.8,67.7,29.90,South,184,0.0,0.0,84,0.00,,,0.00,Wunderground v.1.15,2013-06-17 05:38:00,
2013-06-17 01:43:00,72.7,67.6,29.90,South,184,0.0,0.0,84,0.00,,,0.00,Wunderground v.1.15,2013-06-17 05:43:00,
2013-06-17 01:49:00,72.7,67.9,29.90,South,184,0.0,0.0,85,0.00,,,0.00,Wunderground v.1.15,2013-06-17 05:49:00,
2013-06-17 01:54:00,72.6,67.8,29.90,South,184,0.0,0.0,85,0.00,,,0.00,Wunderground v.1.15,2013-06-17 05:54:00,
2013-06-17 01:59:00,72.6,68.2,29.90,South,184,0.0,0.0,86,0.00,,,0.00,Wunderground v.1.15,2013-06-17 05:59:00,
2013-06-17 02:04:00,72.5,68.1,29.90,South,184,0.0,0.0,86,0.00,,,0.00,Wunderground v.1.15,2013-06-17 06:04:00,
2013-06-17 02:09:00,72.4,68.0,29.90,South,184,0.0,0.0,86,0.00,,,0.00,Wunderground v.1.15,2013-06-17 06:09:00,
2013-06-17 02:15:00,72.4,68.0,29.90,South,184,0.0,0.0,86,0.00,,,0.00,Wunderground v.1.15,2013-06-17 06:15:00,
2013-06-17 02:20:00,72.3,67.9,29.90,South,184,0.0,0.0,86,0.00,,,0.00,Wunderground v.1.15,2013-06-17 06:20:00,
2013-06-17 02:25:00,72.2,67.8,29.90,South,184,0.0,0.0,86,0.00,,,0.00,Wunderground v.1.15,2013-06-17 06:25:00,
2013-06-17 02:30:00,72.2,68.1,29.90,South,184,0.0,0.0,87,0.00,,,0.00,Wunderground v.1.15,2013-06-17 06:30:00,
2013-06-17 02:35:00,72.2,68.1,29.90,South,184,0.0,0.0,87,0.00,,,0.00,Wunderground v.1.15,2013-06-17 06:35:00,
2013-06-17 02:41:00,72.2,68.1,29.89,South,184,0.0,0.0,87,0.00,,,0.00,Wunderground v.1.15,2013-06-17 06:41:00,
2013-06-17 02:46:00,72.2,68.1,29.90,South,184,0.0,0.0,87,0.00,,,0.00,Wunderground v.1.15,2013-06-17 06:46:00,
2013-06-17 02:51:00,72.2,68.1,29.90,South,184,0.0,0.0,87,0.00,,,0.00,Wunderground v.1.15,2013-06-17 06:51:00,
2013-06-17 02:56:00,72.1,68.0,29.89,South,184,0.0,0.0,87,0.00,,,0.00,Wunderground v.1.15,2013-06-17 06:56:00,
2013-06-17 03:01:00,72.1,68.0,29.89,South,184,0.0,0.0,87,0.00,,,0.00,Wunderground v.1.15,2013-06-17 07:01:00,
2013-06-17 03:07:00,72.1,68.0,29.90,South,184,0.0,0.0,87,0.00,,,0.00,Wunderground v.1.15,2013-06-17 07:07:00,
2013-06-17 03:12:00,72.1,68.0,29.90,South,184,0.0,0.0,87,0.00,,,0.00,Wunderground v.1.15,2013-06-17 07:12:00,
2013-06-17 03:17:00,72.1,68.0,29.90,South,184,0.0,0.0,87,0.00,,,0.00,Wunderground v.1.15,2013-06-17 07:17:00,
2013-06-17 03:22:00,72.1,68.3,29.90,South,184,0.0,0.0,88,0.00,,,0.00,Wunderground v.1.15,2013-06-17 07:22:00,
2013-06-17 03:27:00,72.1,68.3,29.90,South,184,0.0,0.0,88,0.00,,,0.00,Wunderground v.1.15,2013-06-17 07:27:00,
2013-06-17 03:33:00,72.1,68.3,29.90,South,184,0.0,0.0,88,0.00,,,0.00,Wunderground v.1.15,2013-06-17 07:33:00,
2013-06-17 03:38:00,72.1,68.3,29.90,South,184,0.0,0.0,88,0.00,,,0.00,Wunderground v.1.15,2013-06-17 07:38:00,
2013-06-17 03:43:00,72.1,68.3,29.90,South,184,0.0,0.0,88,0.00,,,0.00,Wunderground v.1.15,2013-06-17 07:43:00,
2013-06-17 03:48:00,72.1,68.3,29.90,South,184,0.0,0.0,88,0.00,,,0.00,Wunderground v.1.15,2013-06-17 07:48:00,
2013-06-17 03:53:00,72.0,68.2,29.90,South,184,0.0,0.0,88,0.00,,,0.00,Wunderground v.1.15,2013-06-17 07:53:00,
2013-06-17 03:59:00,72.0,68.2,29.91,South,184,0.0,0.0,88,0.00,,,0.00,Wunderground v.1.15,2013-06-17 07:59:00,
2013-06-17 04:04:00,71.9,68.2,29.91,South,184,0.0,0.0,88,0.00,,,0.00,Wunderground v.1.15,2013-06-17 08:04:00,
2013-06-17 04:09:00,71.9,68.2,29.91,South,184,0.0,0.0,88,0.00,,,0.00,Wunderground v.1.15,2013-06-17 08:09:00,
2013-06-17 04:14:00,71.9,68.2,29.91,South,184,0.0,0.0,88,0.00,,,0.00,Wunderground v.1.15,2013-06-17 08:14:00,
2013-06-17 04:19:00,71.9,68.5,29.90,South,184,0.0,0.0,89,0.00,,,0.00,Wunderground v.1.15,2013-06-17 08:19:00,
2013-06-17 04:25:00,72.0,68.6,29.91,South,184,0.0,1.0,89,0.00,,,0.00,Wunderground v.1.15,2013-06-17 08:25:00,
2013-06-17 04:30:00,72.0,68.6,29.90,South,184,0.0,0.0,89,0.00,,,0.00,Wunderground v.1.15,2013-06-17 08:30:00,
2013-06-17 04:35:00,72.1,68.7,29.90,South,184,0.0,0.0,89,0.00,,,0.00,Wunderground v.1.15,2013-06-17 08:35:00,
2013-06-17 04:40:00,72.1,68.7,29.91,South,184,0.0,0.0,89,0.00,,,0.00,Wunderground v.1.15,2013-06-17 08:40:00,
2013-06-17 04:45:00,72.1,68.7,29.90,South,184,0.0,0.0,89,0.00,,,0.00,Wunderground v.1.15,2013-06-17 08:45:00,
2013-06-17 04:51:00,72.1,68.7,29.90,South,184,0.0,0.0,89,0.00,,,0.00,Wunderground v.1.15,2013-06-17 08:51:00,
2013-06-17 04:56:00,72.2,68.8,29.91,South,184,0.0,0.0,89,0.00,,,0.00,Wunderground v.1.15,2013-06-17 08:56:00,
2013-06-17 05:01:00,72.2,68.8,29.91,South,184,0.0,0.0,89,0.00,,,0.00,Wunderground v.1.15,2013-06-17 09:01:00,
2013-06-17 05:07:00,72.2,68.8,29.91,South,184,0.0,1.0,89,0.00,,,0.00,Wunderground v.1.15,2013-06-17 09:07:00,
2013-06-17 05:12:00,72.2,68.8,29.91,South,184,0.0,0.0,89,0.00,,,0.00,Wunderground v.1.15,2013-06-17 09:12:00,
2013-06-17 05:17:00,72.2,68.8,29.91,South,184,0.0,1.0,89,0.00,,,0.00,Wunderground v.1.15,2013-06-17 09:17:00,
2013-06-17 05:22:00,72.2,68.8,29.91,South,184,0.0,0.0,89,0.00,,,0.00,Wunderground v.1.15,2013-06-17 09:22:00,
2013-06-17 05:27:00,72.1,68.7,29.92,South,184,0.0,0.0,89,0.00,,,0.00,Wunderground v.1.15,2013-06-17 09:27:00,
2013-06-17 05:32:00,72.1,68.7,29.92,South,184,0.0,1.0,89,0.00,,,0.00,Wunderground v.1.15,2013-06-17 09:32:00,
2013-06-17 05:37:00,72.0,68.6,29.92,South,184,0.0,1.0,89,0.00,,,0.00,Wunderground v.1.15,2013-06-17 09:37:00,
2013-06-17 05:43:00,71.9,68.5,29.91,South,184,0.0,0.0,89,0.00,,,0.00,Wunderground v.1.15,2013-06-17 09:43:00,
2013-06-17 05:48:00,71.8,68.4,29.92,South,184,0.0,1.0,89,0.00,,,0.00,Wunderground v.1.15,2013-06-17 09:48:00,
2013-06-17 05:53:00,71.8,68.4,29.92,South,184,0.0,0.0,89,0.00,,,0.00,Wunderground v.1.15,2013-06-17 09:53:00,
2013-06-17 05:58:00,71.7,68.3,29.92,South,184,0.0,0.0,89,0.00,,,0.00,Wunderground v.1.15,2013-06-17 09:58:00,
2013-06-17 06:03:00,71.7,68.3,29.92,South,184,0.0,1.0,89,0.00,,,0.00,Wunderground v.1.15,2013-06-17 10:03:00,
2013-06-17 06:09:00,71.7,68.3,29.92,South,184,0.0,1.0,89,0.00,,,0.00,Wunderground v.1.15,2013-06-17 10:09:00,
2013-06-17 06:14:00,71.6,68.2,29.92,South,184,0.0,1.0,89,0.00,,,0.00,Wunderground v.1.15,2013-06-17 10:14:00,
2013-06-17 06:19:00,71.6,68.2,29.92,South,184,0.0,1.0,89,0.00,,,0.00,Wunderground v.1.15,2013-06-17 10:19:00,
2013-06-17 06:24:00,71.6,68.2,29.92,South,184,0.0,1.0,89,0.00,,,0.00,Wunderground v.1.15,2013-06-17 10:24:00,
2013-06-17 06:29:00,71.6,68.2,29.93,South,184,0.0,1.0,89,0.00,,,0.00,Wunderground v.1.15,2013-06-17 10:29:00,
2013-06-17 06:35:00,71.6,68.2,29.92,South,184,0.0,1.0,89,0.00,,,0.00,Wunderground v.1.15,2013-06-17 10:35:00,
2013-06-17 06:40:00,71.7,68.3,29.93,South,184,0.0,1.0,89,0.00,,,0.00,Wunderground v.1.15,2013-06-17 10:40:00,
2013-06-17 06:45:00,71.7,68.3,29.93,South,184,0.0,1.0,89,0.00,,,0.00,Wunderground v.1.15,2013-06-17 10:45:00,
2013-06-17 06:50:00,71.7,68.3,29.93,South,184,0.0,1.0,89,0.00,,,0.00,Wunderground v.1.15,2013-06-17 10:50:00,
2013-06-17 06:55:00,71.7,68.3,29.93,South,184,0.0,1.0,89,0.00,,,0.00,Wunderground v.1.15,2013-06-17 10:55:00,
2013-06-17 07:00:00,71.8,68.4,29.93,South,184,0.0,1.0,89,0.00,,,0.00,Wunderground v.1.15,2013-06-17 11:00:00,
2013-06-17 07:05:00,71.9,68.5,29.93,South,184,0.0,1.0,89,0.00,,,0.00,Wunderground v.1.15,2013-06-17 11:05:00,
2013-06-17 07:10:00,72.0,68.6,29.93,South,184,0.0,0.0,89,0.00,,,0.00,Wunderground v.1.15,2013-06-17 11:10:00,
2013-06-17 07:15:00,72.0,68.6,29.93,South,184,0.0,0.0,89,0.00,,,0.00,Wunderground v.1.15,2013-06-17 11:15:00,
2013-06-17 07:20:00,72.2,68.8,29.93,South,184,0.0,0.0,89,0.00,,,0.00,Wunderground v.1.15,2013-06-17 11:20:00,
2013-06-17 07:25:00,72.3,68.5,29.93,South,184,0.0,0.0,88,0.00,,,0.00,Wunderground v.1.15,2013-06-17 11:25:00,
2013-06-17 07:31:00,72.4,68.6,29.93,South,184,0.0,0.0,88,0.00,,,0.00,Wunderground v.1.15,2013-06-17 11:31:00,
2013-06-17 07:36:00,72.6,68.8,29.93,South,184,0.0,0.0,88,0.00,,,0.00,Wunderground v.1.15,2013-06-17 11:36:00,
2013-06-17 07:41:00,72.8,69.0,29.93,South,184,0.0,0.0,88,0.00,,,0.00,Wunderground v.1.15,2013-06-17 11:41:00,
2013-06-17 07:46:00,73.0,68.9,29.93,South,184,0.0,0.0,87,0.00,,,0.00,Wunderground v.1.15,2013-06-17 11:46:00,
2013-06-17 07:51:00,73.2,69.1,29.94,South,184,0.0,0.0,87,0.00,,,0.00,Wunderground v.1.15,2013-06-17 11:51:00,
2013-06-17 07:57:00,73.4,69.3,29.94,South,184,0.0,0.0,87,0.00,,,0.00,Wunderground v.1.15,2013-06-17 11:57:00,
2013-06-17 08:02:00,73.6,69.2,29.93,South,184,0.0,0.0,86,0.00,,,0.00,Wunderground v.1.15,2013-06-17 12:02:00,
2013-06-17 08:07:00,73.7,69.2,29.93,South,184,0.0,0.0,86,0.00,,,0.00,Wunderground v.1.15,2013-06-17 12:07:00,
2013-06-17 08:12:00,73.9,69.4,29.94,South,184,0.0,0.0,86,0.00,,,0.00,Wunderground v.1.15,2013-06-17 12:12:00,
2013-06-17 08:17:00,74.3,70.2,29.94,South,184,0.0,3.0,87,0.00,,,0.00,Wunderground v.1.15,2013-06-17 12:17:00,
2013-06-17 08:23:00,74.6,69.8,29.94,South,181,1.0,1.0,85,0.00,,,0.00,Wunderground v.1.15,2013-06-17 12:23:00,
2013-06-17 08:28:00,74.8,70.0,29.94,South,181,0.0,1.0,85,0.00,,,0.00,Wunderground v.1.15,2013-06-17 12:28:00,
2013-06-17 08:33:00,74.8,70.0,29.94,South,183,0.0,1.0,85,0.00,,,0.00,Wunderground v.1.15,2013-06-17 12:33:00,
2013-06-17 08:38:00,74.9,70.1,29.94,South,183,0.0,1.0,85,0.00,,,0.00,Wunderground v.1.15,2013-06-17 12:38:00,
2013-06-17 08:43:00,75.1,69.9,29.94,South,183,0.0,1.0,84,0.00,,,0.00,Wunderground v.1.15,2013-06-17 12:43:00,
2013-06-17 08:49:00,75.2,69.7,29.94,WSW,243,0.0,1.0,83,0.00,,,0.00,Wunderground v.1.15,2013-06-17 12:49:00,
2013-06-17 08:54:00,75.3,69.8,29.94,WSW,243,0.0,1.0,83,0.00,,,0.00,Wunderground v.1.15,2013-06-17 12:54:00,
2013-06-17 08:59:00,75.5,70.0,29.94,WSW,243,0.0,1.0,83,0.00,,,0.00,Wunderground v.1.15,2013-06-17 12:59:00,
2013-06-17 09:04:00,75.7,70.2,29.94,WSW,240,0.0,0.0,83,0.00,,,0.00,Wunderground v.1.15,2013-06-17 13:04:00,
2013-06-17 09:09:00,76.1,70.6,29.94,WSW,240,0.0,0.0,83,0.00,,,0.00,Wunderground v.1.15,2013-06-17 13:09:00,
2013-06-17 09:15:00,76.4,70.5,29.94,WSW,238,1.0,2.0,82,0.00,,,0.00,Wunderground v.1.15,2013-06-17 13:15:00,
2013-06-17 09:20:00,76.6,70.7,29.94,SSW,193,1.0,1.0,82,0.00,,,0.00,Wunderground v.1.15,2013-06-17 13:20:00,
2013-06-17 09:25:00,76.7,70.4,29.93,SSW,193,0.0,1.0,81,0.00,,,0.00,Wunderground v.1.15,2013-06-17 13:25:00,
2013-06-17 09:30:00,77.0,70.7,29.94,SSW,193,0.0,0.0,81,0.00,,,0.00,Wunderground v.1.15,2013-06-17 13:30:00,
2013-06-17 09:35:00,77.1,70.8,29.94,WSW,239,1.0,2.0,81,0.00,,,0.00,Wunderground v.1.15,2013-06-17 13:35:00,
2013-06-17 09:41:00,77.5,71.6,29.94,WSW,239,1.0,1.0,82,0.00,,,0.00,Wunderground v.1.15,2013-06-17 13:41:00,
2013-06-17 09:46:00,78.0,71.0,29.93,WSW,247,1.0,3.0,79,0.00,,,0.00,Wunderground v.1.15,2013-06-17 13:46:00,
2013-06-17 09:51:00,78.4,71.0,29.94,WSW,243,2.0,2.0,78,0.00,,,0.00,Wunderground v.1.15,2013-06-17 13:51:00,
2013-06-17 09:56:00,78.5,71.1,29.93,WSW,249,2.0,3.0,78,0.00,,,0.00,Wunderground v.1.15,2013-06-17 13:56:00,
2013-06-17 10:01:00,78.5,71.1,29.93,WSW,249,1.0,2.0,78,0.00,,,0.00,Wunderground v.1.15,2013-06-17 14:01:00,
2013-06-17 10:07:00,78.5,71.1,29.93,WSW,249,1.0,2.0,78,0.00,,,0.00,Wunderground v.1.15,2013-06-17 14:07:00,
2013-06-17 10:12:00,78.6,71.2,29.93,WSW,249,1.0,2.0,78,0.00,,,0.00,Wunderground v.1.15,2013-06-17 14:12:00,
2013-06-17 10:17:00,79.3,72.2,29.93,WSW,249,1.0,2.0,79,0.00,,,0.00,Wunderground v.1.15,2013-06-17 14:17:00,
2013-06-17 10:22:00,79.4,71.9,29.93,WSW,249,0.0,2.0,78,0.00,,,0.00,Wunderground v.1.15,2013-06-17 14:22:00,
2013-06-17 10:27:00,79.5,71.7,29.93,WSW,249,1.0,2.0,77,0.00,,,0.00,Wunderground v.1.15,2013-06-17 14:27:00,
2013-06-17 10:33:00,79.4,71.6,29.93,WSW,249,1.0,2.0,77,0.00,,,0.00,Wunderground v.1.15,2013-06-17 14:33:00,
2013-06-17 10:38:00,79.5,71.7,29.93,WSW,249,0.0,2.0,77,0.00,,,0.00,Wunderground v.1.15,2013-06-17 14:38:00,
2013-06-17 10:43:00,79.8,71.9,29.92,WSW,249,0.0,2.0,77,0.00,,,0.00,Wunderground v.1.15,2013-06-17 14:43:00,
2013-06-17 10:48:00,80.7,72.8,29.92,WSW,247,0.0,2.0,77,0.00,,,0.00,Wunderground v.1.15,2013-06-17 14:48:00,
2013-06-17 10:53:00,81.7,73.0,29.92,ESE,106,1.0,2.0,75,0.00,,,0.00,Wunderground v.1.15,2013-06-17 14:53:00,
2013-06-17 10:59:00,82.4,72.5,29.92,ESE,106,0.0,2.0,72,0.00,,,0.00,Wunderground v.1.15,2013-06-17 14:59:00,
2013-06-17 11:04:00,83.1,72.7,29.92,South,187,0.0,2.0,71,0.00,,,0.00,Wunderground v.1.15,2013-06-17 15:04:00,
2013-06-17 11:09:00,84.0,73.6,29.92,SSW,203,1.0,2.0,71,0.00,,,0.00,Wunderground v.1.15,2013-06-17 15:09:00,
2013-06-17 11:14:00,84.6,72.4,29.92,SSW,203,1.0,2.0,67,0.00,,,0.00,Wunderground v.1.15,2013-06-17 15:14:00,
2013-06-17 11:19:00,84.9,73.2,29.92,SSW,203,1.0,2.0,68,0.00,,,0.00,Wunderground v.1.15,2013-06-17 15:19:00,
2013-06-17 11:25:00,85.6,72.5,29.92,SSW,203,0.0,2.0,65,0.00,,,0.00,Wunderground v.1.15,2013-06-17 15:25:00,
2013-06-17 11:30:00,86.0,72.9,29.91,SSW,203,0.0,2.0,65,0.00,,,0.00,Wunderground v.1.15,2013-06-17 15:30:00,
2013-06-17 11:35:00,86.5,71.9,29.91,SSW,203,1.0,2.0,62,0.00,,,0.00,Wunderground v.1.15,2013-06-17 15:35:00,
2013-06-17 11:40:00,87.0,72.4,29.91,SSE,161,1.0,1.0,62,0.00,,,0.00,Wunderground v.1.15,2013-06-17 15:40:00,
2013-06-17 11:45:00,87.5,73.8,29.91,NNW,342,0.0,2.0,64,0.00,,,0.00,Wunderground v.1.15,2013-06-17 15:45:00,
2013-06-17 11:50:00,87.9,72.8,29.91,ESE,115,1.0,2.0,61,0.00,,,0.00,Wunderground v.1.15,2013-06-17 15:50:00,
2013-06-17 11:55:00,88.5,71.3,29.91,WSW,252,1.0,2.0,57,0.00,,,0.00,Wunderground v.1.15,2013-06-17 15:55:00,
2013-06-17 12:00:00,89.0,73.3,29.91,NNW,331,1.0,2.0,60,0.00,,,0.00,Wunderground v.1.15,2013-06-17 16:00:00,
2013-06-17 12:06:00,89.3,71.5,29.91,South,182,1.0,2.0,56,0.00,,,0.00,Wunderground v.1.15,2013-06-17 16:06:00,
2013-06-17 12:11:00,89.5,72.3,29.92,SSE,148,1.0,3.0,57,0.00,,,0.00,Wunderground v.1.15,2013-06-17 16:11:00,
2013-06-17 12:17:00,88.4,74.2,29.91,ENE,76,1.0,3.0,63,0.00,,,0.00,Wunderground v.1.15,2013-06-17 16:17:00,
2013-06-17 12:22:00,87.8,72.7,29.92,North,351,1.0,2.0,61,0.00,,,0.00,Wunderground v.1.15,2013-06-17 16:22:00,
2013-06-17 12:27:00,87.6,72.5,29.92,SE,144,1.0,4.0,61,0.00,,,0.00,Wunderground v.1.15,2013-06-17 16:27:00,
2013-06-17 12:32:00,87.5,73.8,29.91,South,182,2.0,3.0,64,0.00,,,0.00,Wunderground v.1.15,2013-06-17 16:32:00,
2013-06-17 12:37:00,87.2,74.5,29.91,SSE,164,2.0,3.0,66,0.00,,,0.00,Wunderground v.1.15,2013-06-17 16:37:00,
2013-06-17 12:42:00,86.8,73.6,29.91,SSE,147,2.0,2.0,65,0.00,,,0.00,Wunderground v.1.15,2013-06-17 16:42:00,
2013-06-17 12:47:00,86.2,73.0,29.91,SE,133,2.0,2.0,65,0.00,,,0.00,Wunderground v.1.15,2013-06-17 16:47:00,
2013-06-17 12:52:00,85.7,73.0,29.92,South,188,2.0,3.0,66,0.00,,,0.00,Wunderground v.1.15,2013-06-17 16:52:00,
2013-06-17 12:57:00,85.2,73.9,29.92,SSE,166,1.0,3.0,69,0.00,,,0.00,Wunderground v.1.15,2013-06-17 16:57:00,
2013-06-17 13:02:00,84.7,74.7,29.92,SSE,166,0.0,1.0,72,0.29,,,0.02,Wunderground v.1.15,2013-06-17 17:02:00,
2013-06-17 13:07:00,83.9,75.1,29.92,SSE,167,0.0,1.0,75,0.31,,,0.03,Wunderground v.1.15,2013-06-17 17:07:00,
2013-06-17 13:13:00,82.8,74.1,29.93,SSE,167,0.0,1.0,75,0.82,,,0.11,Wunderground v.1.15,2013-06-17 17:13:00,
2013-06-17 13:18:00,81.6,73.3,29.92,SSE,151,1.0,4.0,76,0.86,,,0.19,Wunderground v.1.15,2013-06-17 17:18:00,
2013-06-17 13:23:00,79.9,72.8,29.92,SE,144,1.0,1.0,79,0.75,,,0.26,Wunderground v.1.15,2013-06-17 17:23:00,
2013-06-17 13:28:00,79.1,73.1,29.92,SE,144,1.0,1.0,82,0.47,,,0.31,Wunderground v.1.15,2013-06-17 17:28:00,
2013-06-17 13:33:00,78.6,73.0,29.92,SE,144,0.0,2.0,83,0.15,,,0.32,Wunderground v.1.15,2013-06-17 17:33:00,
2013-06-17 13:39:00,78.1,72.9,29.92,SW,215,1.0,2.0,84,0.11,,,0.33,Wunderground v.1.15,2013-06-17 17:39:00,
2013-06-17 13:44:00,77.9,73.4,29.92,SW,215,1.0,2.0,86,0.06,,,0.33,Wunderground v.1.15,2013-06-17 17:44:00,
2013-06-17 13:49:00,78.1,74.3,29.92,SW,215,1.0,2.0,88,0.04,,,0.33,Wunderground v.1.15,2013-06-17 17:49:00,
2013-06-17 13:54:00,78.3,74.1,29.92,SSE,147,1.0,3.0,87,0.00,,,0.33,Wunderground v.1.15,2013-06-17 17:54:00,
2013-06-17 13:59:00,78.2,74.0,29.92,SSE,151,1.0,3.0,87,0.00,,,0.33,Wunderground v.1.15,2013-06-17 17:59:00,
2013-06-17 14:04:00,78.2,73.7,29.92,SSE,163,1.0,2.0,86,0.00,,,0.33,Wunderground v.1.15,2013-06-17 18:04:00,
2013-06-17 14:09:00,78.3,73.8,29.92,South,171,1.0,2.0,86,0.00,,,0.33,Wunderground v.1.15,2013-06-17 18:09:00,
2013-06-17 14:14:00,78.3,73.4,29.92,South,178,1.0,5.0,85,0.00,,,0.33,Wunderground v.1.15,2013-06-17 18:14:00,
2013-06-17 14:20:00,78.5,73.6,29.91,South,189,1.0,2.0,85,0.00,,,0.33,Wunderground v.1.15,2013-06-17 18:20:00,
2013-06-17 14:25:00,78.9,73.3,29.91,SSW,203,1.0,2.0,83,0.00,,,0.33,Wunderground v.1.15,2013-06-17 18:25:00,
2013-06-17 14:30:00,79.3,73.0,29.91,SSW,193,3.0,3.0,81,0.00,,,0.33,Wunderground v.1.15,2013-06-17 18:30:00,
2013-06-17 14:35:00,80.1,73.4,29.91,SE,134,3.0,7.0,80,0.00,,,0.33,Wunderground v.1.15,2013-06-17 18:35:00,
2013-06-17 14:40:00,80.9,74.1,29.91,SSE,167,3.0,4.0,80,0.00,,,0.33,Wunderground v.1.15,2013-06-17 18:40:00,
2013-06-17 14:45:00,81.7,74.9,29.91,SSE,155,3.0,6.0,80,0.00,,,0.33,Wunderground v.1.15,2013-06-17 18:45:00,
2013-06-17 14:50:00,81.6,74.1,29.91,South,187,4.0,4.0,78,0.00,,,0.33,Wunderground v.1.15,2013-06-17 18:50:00,
2013-06-17 14:55:00,81.4,74.3,29.91,South,189,3.0,4.0,79,0.00,,,0.33,Wunderground v.1.15,2013-06-17 18:55:00,
2013-06-17 15:01:00,81.2,73.7,29.91,South,173,3.0,6.0,78,0.00,,,0.33,Wunderground v.1.15,2013-06-17 19:01:00,
2013-06-17 15:07:00,81.3,73.8,29.90,SSW,207,3.0,6.0,78,0.00,,,0.33,Wunderground v.1.15,2013-06-17 19:07:00,
2013-06-17 15:12:00,81.5,74.4,29.90,South,179,3.0,6.0,79,0.00,,,0.33,Wunderground v.1.15,2013-06-17 19:12:00,
2013-06-17 15:17:00,81.5,74.0,29.89,South,177,3.0,6.0,78,0.00,,,0.33,Wunderground v.1.15,2013-06-17 19:17:00,
2013-06-17 15:23:00,81.4,73.9,29.89,South,178,3.0,6.0,78,0.00,,,0.33,Wunderground v.1.15,2013-06-17 19:23:00,
2013-06-17 15:28:00,81.3,72.6,29.90,SSW,193,3.0,7.0,75,0.00,,,0.33,Wunderground v.1.15,2013-06-17 19:28:00,
2013-06-17 15:33:00,81.3,73.0,29.89,SSE,165,3.0,6.0,76,0.00,,,0.33,Wunderground v.1.15,2013-06-17 19:33:00,
2013-06-17 15:38:00,81.3,72.6,29.89,SSE,160,3.0,6.0,75,0.00,,,0.33,Wunderground v.1.15,2013-06-17 19:38:00,
2013-06-17 15:43:00,81.3,72.6,29.89,South,176,3.0,6.0,75,0.00,,,0.33,Wunderground v.1.15,2013-06-17 19:43:00,
2013-06-17 15:49:00,81.4,72.7,29.88,South,184,2.0,6.0,75,0.00,,,0.33,Wunderground v.1.15,2013-06-17 19:49:00,
2013-06-17 15:54:00,81.5,72.8,29.88,SSW,203,2.0,8.0,75,0.00,,,0.33,Wunderground v.1.15,2013-06-17 19:54:00,
2013-06-17 15:59:00,81.6,72.9,29.88,SSW,193,3.0,8.0,75,0.00,,,0.33,Wunderground v.1.15,2013-06-17 19:59:00,
2013-06-17 16:04:00,81.7,73.0,29.88,South,189,3.0,6.0,75,0.00,,,0.33,Wunderground v.1.15,2013-06-17 20:04:00,
2013-06-17 16:09:00,81.5,72.0,29.88,SSW,203,3.0,6.0,73,0.00,,,0.33,Wunderground v.1.15,2013-06-17 20:09:00,
2013-06-17 16:15:00,81.5,72.4,29.88,South,182,3.0,6.0,74,0.00,,,0.33,Wunderground v.1.15,2013-06-17 20:15:00,
2013-06-17 16:20:00,81.6,72.5,29.88,SW,215,3.0,6.0,74,0.00,,,0.33,Wunderground v.1.15,2013-06-17 20:20:00,
2013-06-17 16:25:00,81.7,73.4,29.88,South,178,3.0,6.0,76,0.00,,,0.33,Wunderground v.1.15,2013-06-17 20:25:00,
2013-06-17 16:30:00,82.0,73.3,29.88,South,169,2.0,2.0,75,0.00,,,0.33,Wunderground v.1.15,2013-06-17 20:30:00,
2013-06-17 16:35:00,82.0,73.3,29.88,South,174,2.0,6.0,75,0.00,,,0.33,Wunderground v.1.15,2013-06-17 20:35:00,
2013-06-17 16:41:00,82.0,73.7,29.88,SSE,157,2.0,6.0,76,0.00,,,0.33,Wunderground v.1.15,2013-06-17 20:41:00,
2013-06-17 16:46:00,81.9,73.6,29.87,SE,131,3.0,6.0,76,0.00,,,0.33,Wunderground v.1.15,2013-06-17 20:46:00,
2013-06-17 16:51:00,82.0,74.5,29.87,South,188,3.0,6.0,78,0.00,,,0.33,Wunderground v.1.15,2013-06-17 20:51:00,
2013-06-17 16:56:00,82.0,74.5,29.87,South,182,3.0,6.0,78,0.00,,,0.33,Wunderground v.1.15,2013-06-17 20:56:00,
2013-06-17 17:01:00,82.0,74.1,29.87,South,178,2.0,7.0,77,0.00,,,0.33,Wunderground v.1.15,2013-06-17 21:01:00,
2013-06-17 17:07:00,81.9,74.4,29.87,South,177,3.0,7.0,78,0.00,,,0.33,Wunderground v.1.15,2013-06-17 21:07:00,
2013-06-17 17:12:00,81.6,74.1,29.87,SSW,193,4.0,7.0,78,0.00,,,0.33,Wunderground v.1.15,2013-06-17 21:12:00,
2013-06-17 17:17:00,81.4,73.9,29.86,South,179,4.0,7.0,78,0.00,,,0.33,Wunderground v.1.15,2013-06-17 21:17:00,
2013-06-17 17:22:00,81.3,74.2,29.86,SE,140,4.0,7.0,79,0.00,,,0.33,Wunderground v.1.15,2013-06-17 21:22:00,
2013-06-17 17:27:00,81.2,74.1,29.87,SSW,203,4.0,7.0,79,0.00,,,0.33,Wunderground v.1.15,2013-06-17 21:27:00,
2013-06-17 17:33:00,81.2,74.4,29.87,SSE,166,3.0,7.0,80,0.00,,,0.33,Wunderground v.1.15,2013-06-17 21:33:00,
2013-06-17 17:38:00,81.1,74.0,29.87,SE,142,3.0,7.0,79,0.00,,,0.33,Wunderground v.1.15,2013-06-17 21:38:00,
2013-06-17 17:43:00,81.2,74.1,29.87,SSE,162,3.0,7.0,79,0.00,,,0.33,Wunderground v.1.15,2013-06-17 21:43:00,
2013-06-17 17:48:00,81.1,73.6,29.87,SSE,157,4.0,7.0,78,0.00,,,0.33,Wunderground v.1.15,2013-06-17 21:48:00,
2013-06-17 17:53:00,80.8,73.7,29.87,South,188,5.0,7.0,79,0.00,,,0.33,Wunderground v.1.15,2013-06-17 21:53:00,
2013-06-17 17:59:00,80.6,73.9,29.87,SW,217,4.0,7.0,80,0.00,,,0.33,Wunderground v.1.15,2013-06-17 21:59:00,
2013-06-17 18:04:00,80.6,74.2,29.87,South,188,3.0,5.0,81,0.00,,,0.33,Wunderground v.1.15,2013-06-17 22:04:00,
2013-06-17 18:09:00,80.6,74.6,29.87,SSE,167,3.0,7.0,82,0.00,,,0.33,Wunderground v.1.15,2013-06-17 22:09:00,
2013-06-17 18:14:00,80.6,74.6,29.88,West,272,3.0,5.0,82,0.00,,,0.33,Wunderground v.1.15,2013-06-17 22:14:00,
2013-06-17 18:19:00,80.5,74.5,29.88,SSW,198,3.0,8.0,82,0.00,,,0.33,Wunderground v.1.15,2013-06-17 22:19:00,
2013-06-17 18:25:00,80.1,74.5,29.88,SSE,164,4.0,6.0,83,0.00,,,0.33,Wunderground v.1.15,2013-06-17 22:25:00,
2013-06-17 18:30:00,79.9,74.3,29.88,SW,219,4.0,7.0,83,0.00,,,0.33,Wunderground v.1.15,2013-06-17 22:30:00,
2013-06-17 18:35:00,79.7,74.1,29.88,South,186,3.0,7.0,83,0.00,,,0.33,Wunderground v.1.15,2013-06-17 22:35:00,
2013-06-17 18:40:00,79.6,74.3,29.88,ESE,105,3.0,5.0,84,0.00,,,0.33,Wunderground v.1.15,2013-06-17 22:40:00,
2013-06-17 18:45:00,79.4,74.1,29.88,SSE,168,2.0,5.0,84,0.00,,,0.33,Wunderground v.1.15,2013-06-17 22:45:00,
2013-06-17 18:51:00,79.2,73.9,29.88,South,173,2.0,4.0,84,0.00,,,0.33,Wunderground v.1.15,2013-06-17 22:51:00,
2013-06-17 18:56:00,79.1,73.5,29.87,SSE,156,3.0,5.0,83,0.00,,,0.33,Wunderground v.1.15,2013-06-17 22:56:00,
2013-06-17 19:01:00,78.9,73.3,29.87,SSW,193,3.0,5.0,83,0.00,,,0.33,Wunderground v.1.15,2013-06-17 23:01:00,
2013-06-17 19:07:00,78.9,73.7,29.87,SSW,203,3.0,10.0,84,0.00,,,0.33,Wunderground v.1.15,2013-06-17 23:07:00,
2013-06-17 19:12:00,78.9,73.7,29.87,South,177,3.0,10.0,84,0.00,,,0.33,Wunderground v.1.15,2013-06-17 23:12:00,
2013-06-17 19:17:00,78.8,73.9,29.87,SSE,151,3.0,10.0,85,0.00,,,0.33,Wunderground v.1.15,2013-06-17 23:17:00,
2013-06-17 19:22:00,78.8,73.9,29.87,SE,142,4.0,10.0,85,0.00,,,0.33,Wunderground v.1.15,2013-06-17 23:22:00,
2013-06-17 19:27:00,78.7,73.8,29.87,SW,219,3.0,10.0,85,0.00,,,0.33,Wunderground v.1.15,2013-06-17 23:27:00,
2013-06-17 19:32:00,78.7,74.2,29.88,SSE,159,2.0,10.0,86,0.00,,,0.33,Wunderground v.1.15,2013-06-17 23:32:00,
2013-06-17 19:37:00,78.7,74.2,29.87,SSE,162,2.0,10.0,86,0.00,,,0.33,Wunderground v.1.15,2013-06-17 23:37:00,
2013-06-17 19:43:00,78.5,74.0,29.87,South,171,2.0,10.0,86,0.00,,,0.33,Wunderground v.1.15,2013-06-17 23:43:00,
2013-06-17 19:48:00,78.4,73.9,29.87,South,177,2.0,10.0,86,0.00,,,0.33,Wunderground v.1.15,2013-06-17 23:48:00,
2013-06-17 19:53:00,78.3,74.1,29.87,SSE,161,2.0,10.0,87,0.00,,,0.33,Wunderground v.1.15,2013-06-17 23:53:00,
2013-06-17 19:58:00,78.2,74.0,29.87,SE,140,2.0,10.0,87,0.00,,,0.33,Wunderground v.1.15,2013-06-17 23:58:00,
2013-06-17 20:03:00,78.1,73.9,29.88,SE,141,2.0,2.0,87,0.00,,,0.33,Wunderground v.1.15,2013-06-18 00:03:00,
2013-06-17 20:09:00,78.0,73.8,29.88,South,178,2.0,5.0,87,0.00,,,0.33,Wunderground v.1.15,2013-06-18 00:09:00,
2013-06-17 20:14:00,77.9,74.1,29.88,SSW,198,1.0,2.0,88,0.00,,,0.33,Wunderground v.1.15,2013-06-18 00:14:00,
2013-06-17 20:19:00,77.8,74.0,29.88,SSE,164,1.0,3.0,88,0.00,,,0.33,Wunderground v.1.15,2013-06-18 00:19:00,
2013-06-17 20:24:00,77.7,73.9,29.88,SSE,164,1.0,2.0,88,0.00,,,0.33,Wunderground v.1.15,2013-06-18 00:24:00,
2013-06-17 20:29:00,77.6,73.8,29.88,WSW,255,1.0,2.0,88,0.00,,,0.33,Wunderground v.1.15,2013-06-18 00:29:00,
2013-06-17 20:34:00,77.5,73.7,29.88,SSE,159,1.0,3.0,88,0.00,,,0.33,Wunderground v.1.15,2013-06-18 00:34:00,
2013-06-17 20:39:00,77.4,73.6,29.88,SSW,193,1.0,3.0,88,0.00,,,0.33,Wunderground v.1.15,2013-06-18 00:39:00,
2013-06-17 20:44:00,77.3,73.5,29.88,SSW,193,1.0,2.0,88,0.00,,,0.33,Wunderground v.1.15,2013-06-18 00:44:00,
2013-06-17 20:49:00,77.3,73.5,29.89,SSW,193,0.0,2.0,88,0.00,,,0.33,Wunderground v.1.15,2013-06-18 00:49:00,
2013-06-17 20:54:00,77.2,73.4,29.89,SSW,193,0.0,2.0,88,0.00,,,0.33,Wunderground v.1.15,2013-06-18 00:54:00,
2013-06-17 20:59:00,77.1,73.6,29.89,SSW,193,0.0,2.0,89,0.00,,,0.33,Wunderground v.1.15,2013-06-18 00:59:00,
2013-06-17 21:05:00,77.0,73.5,29.89,SSW,193,0.0,2.0,89,0.00,,,0.33,Wunderground v.1.15,2013-06-18 01:05:00,
2013-06-17 21:10:00,77.0,73.5,29.89,SSW,193,0.0,1.0,89,0.00,,,0.33,Wunderground v.1.15,2013-06-18 01:10:00,
2013-06-17 21:15:00,76.8,73.3,29.89,SSW,193,0.0,1.0,89,0.00,,,0.33,Wunderground v.1.15,2013-06-18 01:15:00,
2013-06-17 21:20:00,76.8,73.3,29.89,SSW,193,0.0,1.0,89,0.00,,,0.33,Wunderground v.1.15,2013-06-18 01:20:00,
2013-06-17 21:25:00,76.7,73.2,29.89,SSW,193,0.0,1.0,89,0.00,,,0.33,Wunderground v.1.15,2013-06-18 01:25:00,
2013-06-17 21:30:00,76.5,73.0,29.89,SSW,193,0.0,1.0,89,0.00,,,0.33,Wunderground v.1.15,2013-06-18 01:30:00,
2013-06-17 21:35:00,76.4,73.2,29.89,SSW,193,0.0,1.0,90,0.00,,,0.33,Wunderground v.1.15,2013-06-18 01:35:00,
2013-06-17 21:40:00,76.2,73.1,29.89,SSW,193,0.0,1.0,90,0.00,,,0.33,Wunderground v.1.15,2013-06-18 01:40:00,
2013-06-17 21:45:00,76.1,72.6,29.89,SSW,193,0.0,1.0,89,0.00,,,0.33,Wunderground v.1.15,2013-06-18 01:45:00,
2013-06-17 21:50:00,76.0,72.5,29.89,SSW,193,0.0,1.0,89,0.00,,,0.33,Wunderground v.1.15,2013-06-18 01:50:00,
2013-06-17 21:55:00,76.0,72.5,29.89,SSW,193,0.0,1.0,89,0.00,,,0.33,Wunderground v.1.15,2013-06-18 01:55:00,
2013-06-17 22:00:00,75.9,72.4,29.89,SSW,193,0.0,1.0,89,0.00,,,0.33,Wunderground v.1.15,2013-06-18 02:00:00,
2013-06-17 22:06:00,75.9,72.8,29.89,SSW,193,0.0,1.0,90,0.00,,,0.33,Wunderground v.1.15,2013-06-18 02:06:00,
2013-06-17 22:11:00,75.8,72.7,29.89,SSW,193,0.0,1.0,90,0.00,,,0.33,Wunderground v.1.15,2013-06-18 02:11:00,
2013-06-17 22:16:00,75.7,72.6,29.89,SSW,193,0.0,1.0,90,0.00,,,0.33,Wunderground v.1.15,2013-06-18 02:16:00,
2013-06-17 22:21:00,75.7,72.6,29.89,SSW,193,0.0,0.0,90,0.00,,,0.33,Wunderground v.1.15,2013-06-18 02:21:00,
2013-06-17 22:26:00,75.7,72.6,29.90,SSW,193,0.0,1.0,90,0.00,,,0.33,Wunderground v.1.15,2013-06-18 02:26:00,
2013-06-17 22:32:00,75.6,72.5,29.90,SSW,193,0.0,0.0,90,0.00,,,0.33,Wunderground v.1.15,2013-06-18 02:32:00,
2013-06-17 22:37:00,75.6,72.5,29.90,SSW,193,0.0,0.0,90,0.00,,,0.33,Wunderground v.1.15,2013-06-18 02:37:00,
2013-06-17 22:42:00,75.6,72.5,29.91,SSW,193,0.0,0.0,90,0.00,,,0.33,Wunderground v.1.15,2013-06-18 02:42:00,
2013-06-17 22:47:00,75.5,72.4,29.90,SSW,193,0.0,0.0,90,0.00,,,0.33,Wunderground v.1.15,2013-06-18 02:47:00,
2013-06-17 22:52:00,75.5,72.4,29.90,SSW,193,0.0,0.0,90,0.00,,,0.33,Wunderground v.1.15,2013-06-18 02:52:00,
2013-06-17 22:58:00,75.5,72.4,29.90,SSW,193,0.0,0.0,90,0.00,,,0.33,Wunderground v.1.15,2013-06-18 02:58:00,
2013-06-17 23:03:00,75.4,72.3,29.90,SSW,193,0.0,0.0,90,0.00,,,0.33,Wunderground v.1.15,2013-06-18 03:03:00,
2013-06-17 23:08:00,75.4,72.3,29.91,SSW,193,0.0,0.0,90,0.00,,,0.33,Wunderground v.1.15,2013-06-18 03:08:00,
2013-06-17 23:13:00,75.4,72.3,29.91,SSW,193,0.0,1.0,90,0.00,,,0.33,Wunderground v.1.15,2013-06-18 03:13:00,
2013-06-17 23:18:00,75.4,72.3,29.91,SSW,193,0.0,1.0,90,0.00,,,0.33,Wunderground v.1.15,2013-06-18 03:18:00,
2013-06-17 23:24:00,75.3,72.2,29.91,SSW,193,0.0,0.0,90,0.00,,,0.33,Wunderground v.1.15,2013-06-18 03:24:00,
2013-06-17 23:29:00,75.3,72.5,29.91,SSW,193,0.0,3.0,91,0.00,,,0.33,Wunderground v.1.15,2013-06-18 03:29:00,
2013-06-17 23:34:00,75.4,72.6,29.91,SSW,193,0.0,0.0,91,0.00,,,0.33,Wunderground v.1.15,2013-06-18 03:34:00,
2013-06-17 23:39:00,75.3,72.5,29.91,SSW,193,0.0,2.0,91,0.00,,,0.33,Wunderground v.1.15,2013-06-18 03:39:00,
2013-06-17 23:44:00,75.3,72.5,29.91,SSW,193,0.0,0.0,91,0.00,,,0.33,Wunderground v.1.15,2013-06-18 03:44:00,
2013-06-17 23:50:00,75.3,72.5,29.91,SSW,193,0.0,0.0,91,0.00,,,0.33,Wunderground v.1.15,2013-06-18 03:50:00,
2013-06-17 23:55:00,75.3,72.8,29.91,SSW,193,0.0,0.0,92,0.00,,,0.33,Wunderground v.1.15,2013-06-18 03:55:00,